This demonstration page uses our WeatherBlox Daily Observations layout. Learn more.

Left ArrowRight Arrow

Hourly Observations for March 27, 2020

Temp ( °F °C ) Dew Point ( °F °C ) Humidity (%) Winds ( mph kmh ) Pressure ( in mb ) Visibility ( mi km ) Precip ( " mm )
12:14 am 00:14 Cloudy 45 7.2 40 4.4 83 83 NE 16 26 29.78 1008 10 16 0.00 0.00
12:53 am 00:53 Cloudy 44 6.7 40 4.4 85 85 NE 14 22 29.76 1008 10 16 0.00 0.00
1:06 am 01:06 Cloudy 44 6.7 39 3.9 83 83 NE 13 20 29.78 1009 10 16 0.00 0.00
1:53 am 01:53 Cloudy 44 6.7 39 3.9 83 83 NE 10 17 29.77 1008 10 16 0.00 0.00
2:46 am 02:46 Cloudy 45 7 39 4 81 81 NE 9 15 29.78 1008 10 16 0.00 0.00
2:53 am 02:53 Cloudy 44 6.7 40 4.4 85 85 NE 9 15 29.77 1008 10 16 0.00 0.00
3:53 am 03:53 Cloudy 44 6.7 40 4.4 85 85 ENE 9 15 29.74 1007 8 13 0.00 0.00
4:53 am 04:53 Cloudy 43 6.1 40 4.4 89 89 NE 9 15 29.73 1007 7 11 0.00 0.00
5:53 am 05:53 Cloudy 44 6.7 40 4.4 85 85 NNE 10 17 29.74 1007 9 14 0.00 0.00
6:53 am 06:53 Cloudy with Mist and Fog 43 6.1 41 5 93 93 NE 10 17 29.74 1007 6 10 0.00 0.00
7:00 am 07:00 Cloudy with Mist and Fog 43 6.1 41 5 93 93 NE 8 13 29.77 1008 6 10 0.00 0.00
7:53 am 07:53 Cloudy with Mist and Fog 43 6.1 41 5 93 93 NE 10 17 29.75 1008 5 8 0.00 0.00
8:24 am 08:24 Cloudy with Mist and Fog 43 6.1 41 5 93 93 NNE 10 17 29.76 1008 3 4 0.00 0.00
8:53 am 08:53 Partly Cloudy with Mist and Fog 43 6.1 42 5.6 97 97 NNE 9 15 29.75 1008 2 2 0.00 0.00
9:13 am 09:13 Cloudy with Mist and Fog 44 6.7 42 5.6 93 93 NNE 13 20 29.75 1008 2 2 0.00 0.00
9:41 am 09:41 Cloudy with Mist and Fog 44 6.7 42 5.6 93 93 ENE 7 11 29.78 1009 2 3 0.00 0.00
9:48 am 09:48 Cloudy with Mist and Fog 45 7 43 6 93 93 NE 7 11 29.79 1009 2 2 0.00 0.00
9:53 am 09:53 Cloudy with Mist and Fog 44 6.7 42 5.6 93 93 NE 7 11 29.77 1008 1 2 0.00 0.00
10:02 am 10:02 Cloudy with Mist and Fog 44 6.7 42 5.6 93 93 NNE 8 13 29.79 1009 1 1 0.00 0.00
10:53 am 10:53 Mostly Cloudy with Fog 44 6.7 43 6.1 96 96 NNE 10 17 29.77 1008 0 0 0.00 0.00
11:53 am 11:53 Cloudy with Fog 44 6.7 43 6.1 96 96 N 9 15 29.78 1009 1 1 0.00 0.00
12:12 pm 12:12 Cloudy with Mist and Fog 44 6.7 43 6.1 96 96 NE 9 15 29.78 1009 2 2 0.00 0.00
12:20 pm 12:20 Cloudy with Mist and Fog 44 6.7 42 5.6 93 93 NNE 12 19 29.76 1008 3 4 0.00 0.00
12:27 pm 12:27 Cloudy with Mist and Fog 44 6.7 42 5.6 93 93 NNE 13 20 29.76 1008 4 6 0.00 0.00
12:53 pm 12:53 Cloudy with Mist and Fog 45 7.2 43 6.1 93 93 NE 9 15 29.75 1007 3 5 0.00 0.00
1:53 pm 13:53 Cloudy 46 7.8 43 6.1 89 89 Calm 29.76 1008 7 11 0.00 0.00
2:53 pm 14:53 Cloudy with Mist and Fog 46 7.8 43 6.1 89 89 NNE 8 13 29.71 1006 5 8 0.00 0.00
3:53 pm 15:53 Cloudy 47 8.3 42 5.6 83 83 NE 9 15 29.70 1006 8 13 0.00 0.00
4:53 pm 16:53 Cloudy 47 8.3 42 5.6 83 83 NNE 7 11 29.67 1005 10 16 0.00 0.00
5:53 pm 17:53 Cloudy 46 7.8 42 5.6 86 86 NNE 7 11 29.69 1005 10 16 0.00 0.00
6:53 pm 18:53 Cloudy 46 7.8 43 6.1 89 89 NE 7 11 29.69 1005 10 16 0.00 0.00
7:20 pm 19:20 Cloudy 45 7.2 43 6.1 93 93 NE 8 13 29.70 1006 7 11 0.00 0.00
7:44 pm 19:44 Cloudy with Mist and Fog 45 7.2 43 6.1 93 93 NE 7 11 29.71 1006 3 4 0.00 0.00
7:53 pm 19:53 Cloudy with Mist and Fog 45 7.2 43 6.1 93 93 NE 7 11 29.70 1006 5 8 0.00 0.00
8:53 pm 20:53 Cloudy 45 7.2 43 6.1 93 93 NNE 8 13 29.70 1006 8 13 0.00 0.00
9:18 pm 21:18 Cloudy with Mist and Fog 44 6.7 43 6.1 96 96 NNE 9 15 29.72 1007 2 3 0.00 0.00
9:38 pm 21:38 Mostly Cloudy with Mist and Fog 44 6.7 43 6.1 96 96 NE 8 13 29.73 1007 1 1 0.00 0.00
9:53 pm 21:53 Cloudy with Mist and Fog 44 6.7 43 6.1 96 96 NNE 9 15 29.72 1007 1 2 0.00 0.00
10:17 pm 22:17 Mostly Cloudy with Fog 44 6.7 43 6.1 96 96 NNE 6 9 29.73 1007 1 1 0.00 0.00
10:53 pm 22:53 Cloudy with Mist and Fog 43 6.1 42 5.6 97 97 NE 5 7 29.72 1006 3 4 0.00 0.00
11:00 pm 23:00 Cloudy with Mist and Fog 43 6.1 42 5.6 97 97 NE 5 7 29.75 1007 6 10 0.00 0.00
11:27 pm 23:27 Cloudy with Light Rain 44 6.7 42 5.6 93 93 N 10 17 29.71 1006 2 3 0.01 0.25
11:53 pm 23:53 Mostly Cloudy with Light Rain 43 6.1 42 5.6 97 97 NE 10 17 29.67 1005 1 1 0.02 0.51
11:58 pm 23:58 Cloudy with Light Rain 43 6.1 42 5.6 97 97 NNE 10 17 29.69 1005 2 3 0.00 0.00

Powered by AerisWeather